Wheeling, WV

9:20 AM EDT on September 19, 2019 (GMT -0400)
Wheeling-Ohio County

Weather History for KHLG - August, 2019

Change the Weather History Date:

Thursday, August 22, 2019

  Actual Average Record
Temperature  
Mean Temperature 73 °F 71 °F  
Max Temperature 81 °F 81 °F 102 °F (1936)
Min Temperature 65 °F 61 °F 40 °F (1922)
Degree Days  
Heating Degree Days 0 0  
Month to date heating degree days 0 0  
Since 1 June heating degree days 29 41  
Since 1 July heating degree days 0 3  
Cooling Degree Days 8    
Month to date cooling degree days 189  
Year to date cooling degree days 752  
Since 1 June cooling degree days 646  
Growing Degree Days 23 (Base 50)    
Moisture  
Dew Point 66 °F    
Average Humidity 81    
Maximum Humidity 93    
Minimum Humidity 69    
Precipitation  
Precipitation 0.25 in 0.13 in 1.12 in (1916)
Month to date precipitation 1.61 2.36  
Year to date precipitation 25.11 26.38  
Sea Level Pressure  
Sea Level Pressure 29.98 in    
Wind  
Wind Speed 6 mph (WNW)    
Max Wind Speed 14 mph    
Max Gust Speed 19 mph    
Visibility 9 miles    
Events Rain    
T = Trace of Precipitation, MM = Missing Value Source: NWS Daily Summary

Daily Weather History Graph

Daily Weather History Graph

Search for Another Location

Airport or City:

Astronomy

Aug. 22, 2019 Rise Set
Actual Time 6:40 AM EDT 8:09 PM EDT
Civil Twilight 6:11 AM EDT 8:38 PM EDT
Nautical Twilight 5:37 AM EDT 9:12 PM EDT
Astronomical Twilight 5:01 AM EDT 9:48 PM EDT
Moon 11:58 PM EDT (8/22) 1:14 PM EDT (8/22)
Length of Visible Light 14h 26m
Length of Day
13h 29m
Waning Gibbous, 60% of the Moon is Illuminated
Aug 22
Waning Gibbous
Aug 23
Last Quarter
Aug 30
New
Sep 5
First Quarter
Sep 14
Full

Hourly Weather History & Observations

Time (EDT) Temp. Heat Index Dew Point Humidity Pressure Visibility Wind Dir Wind Speed Gust Speed Precip Events Conditions
12:53 AM 71.1 °F - 66.0 °F 84% 29.96 in 10.0 mi SSW 4.6 mph - N/A   Clear
1:53 AM 70.0 °F - 66.0 °F 87% 29.94 in 10.0 mi South 4.6 mph - N/A   Clear
2:53 AM 70.0 °F - 66.0 °F 87% 29.94 in 10.0 mi WSW 4.6 mph - N/A   Clear
3:53 AM 68.0 °F - 64.9 °F 90% 29.95 in 10.0 mi SSW 3.5 mph - N/A   Clear
4:53 AM 68.0 °F - 64.9 °F 90% 29.95 in 10.0 mi SSW 4.6 mph - N/A   Clear
5:53 AM 66.9 °F - 64.9 °F 93% 29.96 in 10.0 mi South 5.8 mph - N/A   Clear
6:53 AM 66.0 °F - 64.9 °F 96% 29.97 in 6.0 mi South 4.6 mph - N/A   Clear
7:21 AM 68.0 °F - 64.9 °F 90% 29.99 in 8.0 mi SSW 4.6 mph - N/A   Mostly Cloudy
7:33 AM 68.0 °F - 66.0 °F 93% 29.99 in 8.0 mi SSW 3.5 mph - N/A   Scattered Clouds
7:53 AM 69.1 °F - 66.0 °F 90% 29.98 in 10.0 mi Calm Calm - N/A   Partly Cloudy
8:53 AM 71.1 °F - 66.9 °F 87% 29.98 in 10.0 mi Calm Calm - N/A   Mostly Cloudy
9:20 AM 73.0 °F - 68.0 °F 84% 29.99 in 10.0 mi SSE 4.6 mph - N/A   Scattered Clouds
9:53 AM 75.0 °F - 68.0 °F 79% 30.00 in 10.0 mi WSW 5.8 mph - N/A   Scattered Clouds
10:53 AM 77.0 °F - 69.1 °F 76% 30.00 in 10.0 mi Variable 3.5 mph - N/A   Scattered Clouds
11:53 AM 77.0 °F - 69.1 °F 76% 29.96 in 10.0 mi Variable 3.5 mph - N/A   Partly Cloudy
12:53 PM 78.1 °F - 70.0 °F 76% 29.96 in 10.0 mi South 5.8 mph - N/A   Mostly Cloudy
1:53 PM 80.1 °F 82.9 °F 69.1 °F 69% 29.95 in 10.0 mi WSW 9.2 mph - N/A   Scattered Clouds
2:17 PM 77.0 °F - 70.0 °F 79% 29.98 in 2.5 mi NW 13.8 mph - 0.09 in Rain Light Rain
2:20 PM 73.9 °F - 70.0 °F 87% 29.98 in 0.8 mi NW 8.1 mph - 0.18 in Rain Heavy Rain
2:27 PM 73.0 °F - 70.0 °F 90% 29.98 in 1.0 mi WNW 6.9 mph - 0.20 in Rain Light Rain
2:37 PM 73.9 °F - 71.1 °F 91% 29.98 in 3.0 mi WNW 6.9 mph - 0.22 in Rain Light Rain
2:53 PM 75.0 °F - 72.0 °F 90% 29.95 in 10.0 mi West 4.6 mph - 0.22 in   Mostly Cloudy
4:44 PM 80.1 °F 83.2 °F 70.0 °F 71% 29.95 in 10.0 mi NW 10.4 mph - N/A   Scattered Clouds
4:53 PM 79.0 °F - 69.1 °F 72% 29.93 in 10.0 mi WNW 9.2 mph - N/A   Scattered Clouds
5:53 PM 78.1 °F - 68.0 °F 71% 29.93 in 10.0 mi WNW 8.1 mph - N/A   Mostly Cloudy
6:53 PM 75.9 °F - 66.0 °F 71% 29.95 in 10.0 mi NNW 6.9 mph - N/A   Overcast
7:53 PM 73.0 °F - 66.0 °F 79% 29.97 in 10.0 mi NNW 8.1 mph - N/A   Overcast
8:53 PM 70.0 °F - 66.9 °F 90% 29.99 in 10.0 mi North 4.6 mph - 0.03 in Rain Light Rain
9:42 PM 69.1 °F - 64.0 °F 84% 30.01 in 10.0 mi North 9.2 mph - 0.00 in   Overcast
9:49 PM 68.0 °F - 64.4 °F 88% 30.02 in 10.0 mi North 8.1 mph - 0.00 in   Overcast
9:53 PM 68.0 °F - 64.0 °F 87% 30.00 in 10.0 mi North 6.9 mph - 0.00 in   Overcast
10:14 PM 66.9 °F - 63.0 °F 87% 30.02 in 10.0 mi North 9.2 mph - N/A   Overcast
10:36 PM 66.9 °F - 62.1 °F 84% 30.02 in 10.0 mi North 6.9 mph - N/A   Overcast
10:53 PM 66.9 °F - 61.0 °F 81% 30.01 in 10.0 mi NNE 5.8 mph - N/A   Overcast
11:12 PM 66.0 °F - 60.1 °F 81% 30.03 in 10.0 mi North 6.9 mph - N/A   Overcast
11:53 PM 66.0 °F - 59.0 °F 78% 30.01 in 10.0 mi NNE 6.9 mph - N/A   Overcast